Total_Precipitation_Accumulation
2.18 2.13 1.58 1.06 0.97 0.79 0.64 0.61 0.57 0.57 0.61 0.82 0.89 0.80 0.86 0.83 0.80 0.83 0.82 0.90 1.02 1.21 1.44 1.65 1.97 2.37 2.66 2.97 3.29 3.57 3.71 3.72 3.83 4.12 4.20 3.98 3.76 3.59 3.20 2.90 2.85 2.77 2.62 2.56
1.89 1.55 0.85 0.66 0.75 0.74 0.69 0.69 0.61 0.55 0.63 0.86 0.90 0.81 0.78 0.77 0.77 0.80 0.84 0.84 0.92 1.00 1.21 1.40 1.67 1.99 2.33 2.64 3.05 3.35 3.57 3.77 3.70 3.62 3.82 3.87 3.80 3.66 3.45 3.17 3.07 2.89 2.73 2.64
1.41 1.00 0.73 0.70 0.74 0.79 0.67 0.62 0.57 0.62 0.74 0.86 0.92 0.96 0.76 0.68 0.65 0.69 0.77 0.76 0.79 0.92 1.04 1.19 1.42 1.68 1.99 2.32 2.66 2.99 3.28 3.57 3.78 3.77 3.97 4.09 4.08 3.84 3.56 3.24 3.02 2.88 2.80 2.74
1.26 0.77 0.75 0.78 0.66 0.67 0.62 0.39 0.49 0.64 0.97 1.07 0.93 1.19 0.74 0.65 0.66 0.68 0.77 0.79 0.74 0.85 0.96 1.06 1.22 1.44 1.70 2.04 2.31 2.59 2.99 3.34 3.64 3.82 3.83 3.86 3.94 3.71 3.31 3.15 3.19 3.05 2.82 2.72
1.21 0.79 0.77 0.84 0.60 0.53 0.53 0.39 0.51 0.70 0.98 1.09 0.79 1.00 0.82 0.63 0.76 0.80 0.83 0.82 0.77 0.81 0.92 0.99 1.09 1.26 1.48 1.80 2.10 2.29 2.60 2.96 3.24 3.32 3.38 3.54 3.66 3.67 3.47 3.33 3.27 3.19 2.92 2.66
0.93 0.72 0.81 0.77 0.57 0.52 0.55 0.67 0.79 0.89 1.35 1.54 0.83 0.95 0.92 0.86 0.96 0.84 0.76 0.74 0.80 0.86 0.93 1.01 1.09 1.21 1.31 1.50 1.81 2.08 2.22 2.48 2.74 2.88 2.98 3.13 3.17 3.32 3.36 3.26 3.25 3.25 3.05 2.75
1.24 0.90 0.70 0.66 0.80 0.71 0.76 1.27 1.79 1.82 1.77 1.20 0.66 0.85 1.03 0.94 0.96 0.97 0.88 0.84 0.89 0.96 1.07 1.15 1.17 1.27 1.35 1.45 1.54 1.81 2.00 2.13 2.35 2.57 2.72 2.76 2.88 2.98 3.05 3.02 3.04 3.15 3.14 2.84
1.28 1.20 0.70 0.60 0.78 0.83 0.75 1.01 1.42 1.38 1.05 0.72 0.59 0.88 1.02 0.92 0.87 0.86 0.87 0.90 0.92 1.07 1.23 1.29 1.31 1.44 1.51 1.55 1.57 1.68 1.79 1.82 1.95 2.17 2.38 2.48 2.64 2.69 2.66 2.63 2.62 2.69 2.82 2.84
0.92 0.86 0.48 0.38 0.44 0.62 0.81 0.78 0.70 1.25 1.03 0.81 0.74 0.75 0.76 0.68 0.72 0.80 0.86 0.87 0.97 1.13 1.30 1.40 1.46 1.52 1.50 1.47 1.56 1.65 1.75 1.72 1.68 1.77 1.94 2.09 2.25 2.35 2.32 2.30 2.25 2.30 2.42 2.56
0.65 0.77 0.53 0.44 0.51 0.63 0.65 0.65 0.87 1.64 1.58 1.08 0.72 0.68 0.90 0.83 0.85 0.84 0.85 0.88 1.00 1.08 1.21 1.35 1.36 1.36 1.42 1.44 1.50 1.62 1.69 1.75 1.67 1.64 1.72 1.84 1.92 1.99 2.02 2.06 2.05 2.00 2.05 2.11
0.48 0.69 0.62 0.64 0.65 0.66 0.66 0.77 0.97 1.27 1.25 1.28 0.91 0.96 1.08 0.97 0.90 0.86 0.84 0.87 0.94 0.99 1.05 1.13 1.15 1.18 1.25 1.31 1.42 1.57 1.67 1.69 1.61 1.66 1.68 1.66 1.73 1.88 1.89 1.84 1.86 1.90 1.88 1.85
0.45 0.70 0.68 0.54 0.40 0.37 0.55 0.66 0.88 1.48 1.24 0.98 0.95 1.02 0.91 0.81 0.76 0.76 0.78 0.83 0.85 0.91 0.95 0.97 0.97 0.96 0.97 1.05 1.15 1.26 1.38 1.44 1.46 1.52 1.63 1.58 1.54 1.72 1.82 1.75 1.71 1.75 1.76 1.66
0.77 1.05 1.11 0.83 0.69 0.58 0.64 0.63 0.82 1.29 1.52 1.15 1.08 0.99 0.79 0.65 0.58 0.62 0.67 0.72 0.76 0.76 0.77 0.76 0.77 0.82 0.81 0.85 0.95 1.07 1.15 1.24 1.35 1.41 1.48 1.47 1.46 1.52 1.60 1.65 1.63 1.62 1.68 1.64
1.05 1.15 1.14 1.17 1.04 0.93 0.82 0.62 0.78 1.48 1.85 1.06 0.76 0.79 0.67 0.62 0.63 0.64 0.64 0.63 0.64 0.63 0.62 0.59 0.59 0.62 0.65 0.70 0.83 0.94 0.98 1.03 1.19 1.29 1.30 1.30 1.34 1.34 1.35 1.39 1.43 1.43 1.44 1.51
0.90 1.21 0.96 0.80 0.68 0.79 0.80 0.67 0.75 1.09 1.03 0.96 0.69 0.64 0.73 0.72 0.74 0.71 0.65 0.57 0.51 0.50 0.48 0.45 0.47 0.50 0.53 0.56 0.63 0.77 0.90 0.96 1.08 1.23 1.27 1.27 1.26 1.26 1.23 1.23 1.20 1.20 1.25 1.33
0.86 1.21 1.06 0.84 0.52 0.55 0.60 0.51 0.58 0.71 0.67 0.67 0.55 0.64 0.60 0.58 0.61 0.64 0.59 0.51 0.45 0.46 0.45 0.40 0.39 0.40 0.43 0.48 0.53 0.63 0.80 0.91 0.98 1.10 1.18 1.21 1.21 1.21 1.21 1.17 1.14 1.10 1.13 1.22
0.86 1.14 1.38 1.01 0.54 0.64 0.73 0.59 0.58 0.66 0.63 0.62 0.70 0.67 0.49 0.49 0.57 0.68 0.63 0.51 0.47 0.46 0.45 0.43 0.42 0.40 0.40 0.42 0.51 0.62 0.74 0.82 0.87 0.93 1.01 1.07 1.09 1.13 1.15 1.15 1.17 1.21 1.22 1.26
0.68 0.97 1.45 1.18 0.87 1.04 0.76 0.50 0.49 0.57 0.62 0.58 0.60 0.52 0.46 0.51 0.56 0.61 0.62 0.57 0.50 0.43 0.42 0.42 0.44 0.42 0.40 0.41 0.48 0.60 0.74 0.85 0.92 0.98 1.00 0.99 1.04 1.09 1.15 1.23 1.31 1.39 1.44 1.45
0.45 0.94 1.48 1.28 0.97 0.62 0.39 0.31 0.44 0.57 0.64 0.54 0.48 0.41 0.36 0.39 0.47 0.52 0.50 0.52 0.52 0.47 0.45 0.47 0.49 0.49 0.47 0.48 0.50 0.59 0.74 0.86 0.94 1.02 1.07 1.07 1.12 1.22 1.27 1.39 1.47 1.50 1.58 1.56
0.37 0.78 1.50 1.36 1.10 0.60 0.40 0.21 0.25 0.45 0.67 0.42 0.37 0.38 0.35 0.35 0.48 0.52 0.48 0.51 0.53 0.49 0.48 0.50 0.51 0.50 0.53 0.57 0.60 0.69 0.84 0.94 1.03 1.12 1.21 1.21 1.22 1.29 1.33 1.37 1.37 1.36 1.37 1.34
0.51 0.88 1.23 1.10 1.05 0.56 0.37 0.18 0.18 0.54 0.69 0.42 0.41 0.43 0.41 0.47 0.55 0.50 0.45 0.48 0.52 0.55 0.58 0.60 0.60 0.63 0.70 0.75 0.80 0.91 1.04 1.17 1.22 1.25 1.31 1.29 1.24 1.24 1.21 1.18 1.13 1.08 1.06 1.03
0.46 0.67 0.73 0.79 1.10 0.73 0.37 0.26 0.49 0.69 0.47 0.41 0.39 0.40 0.40 0.39 0.36 0.36 0.37 0.41 0.45 0.49 0.55 0.61 0.68 0.72 0.76 0.85 0.94 1.05 1.19 1.27 1.21 1.16 1.15 1.11 1.01 0.98 0.93 0.91 0.93 0.92 0.90 0.94
0.45 0.65 0.71 0.75 0.82 0.68 0.52 0.54 0.57 0.50 0.46 0.40 0.41 0.39 0.37 0.37 0.36 0.36 0.36 0.37 0.39 0.41 0.44 0.50 0.58 0.65 0.68 0.76 0.80 0.89 0.94 0.92 0.91 0.90 0.91 0.90 0.87 0.84 0.84 0.82 0.85 0.90 0.89 0.89
0.45 0.44 0.56 0.65 0.63 0.53 0.49 0.45 0.42 0.40 0.42 0.39 0.37 0.35 0.33 0.37 0.34 0.33 0.33 0.35 0.36 0.38 0.40 0.42 0.45 0.50 0.57 0.62 0.66 0.69 0.69 0.69 0.73 0.80 0.84 0.86 0.86 0.84 0.84 0.86 0.84 0.88 0.91 0.92
0.47 0.44 0.52 0.57 0.47 0.41 0.38 0.35 0.38 0.35 0.31 0.31 0.30 0.29 0.31 0.32 0.31 0.33 0.34 0.36 0.37 0.38 0.40 0.41 0.48 0.53 0.61 0.61 0.65 0.68 0.71 0.71 0.76 0.81 0.87 0.90 0.92 0.88 0.88 0.88 0.90 0.92 0.94 1.01
0.43 0.52 0.65 0.64 0.47 0.49 0.45 0.36 0.33 0.32 0.32 0.34 0.34 0.33 0.32 0.34 0.38 0.37 0.39 0.41 0.42 0.42 0.41 0.42 0.45 0.52 0.60 0.60 0.62 0.68 0.74 0.78 0.82 0.84 0.87 0.89 0.92 0.92 0.90 0.86 0.90 0.95 0.97 1.00